Time,TemperatureF,DewpointF,PressureIn,WindDirection,WindDirectionDegrees,WindSpeedMPH,WindSpeedGustMPH,Humidity,HourlyPrecipIn,Conditions,Clouds,dailyrainin,SoftwareType,DateUTC
2013-01-15 00:05:00,29.4,21.2,30.33,WNW,302,2.0,4.0,71,0.00,,,0.00,Wunderground v.1.15,2013-01-15 05:05:00,
2013-01-15 00:10:00,29.4,21.2,30.33,NNW,328,2.0,5.0,71,0.00,,,0.00,Wunderground v.1.15,2013-01-15 05:10:00,
2013-01-15 00:15:00,29.4,21.2,30.33,NW,305,2.0,5.0,71,0.00,,,0.00,Wunderground v.1.15,2013-01-15 05:15:00,
2013-01-15 00:25:00,29.3,21.1,30.32,West,281,2.0,5.0,71,0.00,,,0.00,Wunderground v.1.15,2013-01-15 05:25:00,
2013-01-15 00:30:00,29.4,21.2,30.33,WNW,300,2.0,5.0,71,0.00,,,0.00,Wunderground v.1.15,2013-01-15 05:30:00,
2013-01-15 00:40:00,29.3,21.4,30.33,NW,307,2.0,4.0,72,0.00,,,0.00,Wunderground v.1.15,2013-01-15 05:40:00,
2013-01-15 00:45:00,29.2,21.0,30.33,WNW,302,2.0,4.0,71,0.00,,,0.00,Wunderground v.1.15,2013-01-15 05:45:00,
2013-01-15 00:50:00,29.0,21.1,30.33,NW,326,2.0,2.0,72,0.00,,,0.00,Wunderground v.1.15,2013-01-15 05:50:00,
2013-01-15 01:00:00,28.9,20.7,30.33,WNW,289,2.0,2.0,71,0.00,,,0.00,Wunderground v.1.15,2013-01-15 06:00:00,
2013-01-15 01:10:00,28.6,20.7,30.33,WNW,282,1.0,1.0,72,0.00,,,0.00,Wunderground v.1.15,2013-01-15 06:10:00,
2013-01-15 01:20:00,28.4,20.8,30.33,West,273,1.0,1.0,73,0.00,,,0.00,Wunderground v.1.15,2013-01-15 06:20:00,
2013-01-15 01:30:00,28.3,20.7,30.33,WNW,294,1.0,1.0,73,0.00,,,0.00,Wunderground v.1.15,2013-01-15 06:30:00,
2013-01-15 01:40:00,28.3,21.1,30.33,NW,309,1.0,1.0,74,0.00,,,0.00,Wunderground v.1.15,2013-01-15 06:40:00,
2013-01-15 01:50:00,28.3,21.1,30.33,WNW,285,1.0,1.0,74,0.00,,,0.00,Wunderground v.1.15,2013-01-15 06:50:00,
2013-01-15 02:00:00,28.4,20.8,30.33,WSW,256,1.0,1.0,73,0.00,,,0.00,Wunderground v.1.15,2013-01-15 07:00:00,
2013-01-15 02:10:00,28.3,20.7,30.34,NW,304,1.0,1.0,73,0.00,,,0.00,Wunderground v.1.15,2013-01-15 07:10:00,
2013-01-15 02:15:00,28.4,20.8,30.34,WNW,290,2.0,2.0,73,0.00,,,0.00,Wunderground v.1.15,2013-01-15 07:15:00,
2013-01-15 02:25:00,28.4,20.5,30.35,WNW,291,3.0,5.0,72,0.00,,,0.00,Wunderground v.1.15,2013-01-15 07:25:00,
2013-01-15 02:30:00,28.4,20.5,30.35,WNW,293,2.0,3.0,72,0.00,,,0.00,Wunderground v.1.15,2013-01-15 07:30:00,
2013-01-15 02:35:00,28.4,20.5,30.35,NW,314,3.0,3.0,72,0.00,,,0.00,Wunderground v.1.15,2013-01-15 07:35:00,
2013-01-15 02:40:00,28.3,20.4,30.34,NW,324,3.0,3.0,72,0.00,,,0.00,Wunderground v.1.15,2013-01-15 07:40:00,
2013-01-15 02:50:00,28.3,20.4,30.33,NW,311,3.0,3.0,72,0.00,,,0.00,Wunderground v.1.15,2013-01-15 07:50:00,
2013-01-15 02:55:00,28.2,20.3,30.33,WNW,291,2.0,3.0,72,0.00,,,0.00,Wunderground v.1.15,2013-01-15 07:55:00,
2013-01-15 03:00:00,28.2,20.3,30.34,West,275,2.0,4.0,72,0.00,,,0.00,Wunderground v.1.15,2013-01-15 08:00:00,
2013-01-15 03:10:00,28.2,20.7,30.35,NW,304,3.0,4.0,73,0.00,,,0.00,Wunderground v.1.15,2013-01-15 08:10:00,
2013-01-15 03:20:00,28.1,20.6,30.35,WNW,282,3.0,3.0,73,0.00,,,0.00,Wunderground v.1.15,2013-01-15 08:20:00,
2013-01-15 03:30:00,28.1,20.9,30.34,NNW,347,2.0,2.0,74,0.00,,,0.00,Wunderground v.1.15,2013-01-15 08:30:00,
2013-01-15 03:40:00,28.0,20.5,30.34,WNW,295,2.0,3.0,73,0.00,,,0.00,Wunderground v.1.15,2013-01-15 08:40:00,
2013-01-15 03:45:00,28.0,20.8,30.34,WNW,298,2.0,3.0,74,0.00,,,0.00,Wunderground v.1.15,2013-01-15 08:45:00,
2013-01-15 03:55:00,28.0,20.8,30.34,NW,308,2.0,4.0,74,0.00,,,0.00,Wunderground v.1.15,2013-01-15 08:55:00,
2013-01-15 04:05:00,28.0,20.8,30.34,West,280,3.0,5.0,74,0.00,,,0.00,Wunderground v.1.15,2013-01-15 09:05:00,
2013-01-15 04:10:00,28.0,20.8,30.34,WSW,258,2.0,2.0,74,0.00,,,0.00,Wunderground v.1.15,2013-01-15 09:10:00,
2013-01-15 04:20:00,27.9,20.7,30.33,West,270,2.0,5.0,74,0.00,,,0.00,Wunderground v.1.15,2013-01-15 09:20:00,
2013-01-15 04:30:00,27.9,20.4,30.33,WNW,294,3.0,3.0,73,0.00,,,0.00,Wunderground v.1.15,2013-01-15 09:30:00,
2013-01-15 04:40:00,27.8,20.6,30.33,West,271,3.0,3.0,74,0.00,,,0.00,Wunderground v.1.15,2013-01-15 09:40:00,
2013-01-15 04:50:00,27.8,20.6,30.33,WNW,300,2.0,5.0,74,0.00,,,0.00,Wunderground v.1.15,2013-01-15 09:50:00,
2013-01-15 05:00:00,27.7,20.5,30.33,WNW,302,3.0,4.0,74,0.00,,,0.00,Wunderground v.1.15,2013-01-15 10:00:00,
2013-01-15 05:10:00,27.7,20.5,30.33,West,280,3.0,3.0,74,0.00,,,0.00,Wunderground v.1.15,2013-01-15 10:10:00,
2013-01-15 05:15:00,27.7,20.5,30.33,WNW,286,3.0,3.0,74,0.00,,,0.00,Wunderground v.1.15,2013-01-15 10:15:00,
2013-01-15 05:25:00,27.7,20.5,30.33,West,271,2.0,2.0,74,0.00,,,0.00,Wunderground v.1.15,2013-01-15 10:25:00,
2013-01-15 05:35:00,27.6,20.7,30.32,WSW,238,2.0,3.0,75,0.00,,,0.00,Wunderground v.1.15,2013-01-15 10:35:00,
2013-01-15 05:40:00,27.6,20.7,30.32,WNW,284,2.0,3.0,75,0.00,,,0.00,Wunderground v.1.15,2013-01-15 10:40:00,
2013-01-15 05:50:00,27.6,20.7,30.33,WNW,288,2.0,2.0,75,0.00,,,0.00,Wunderground v.1.15,2013-01-15 10:50:00,
2013-01-15 06:00:00,27.6,21.0,30.33,West,278,1.0,1.0,76,0.00,,,0.00,Wunderground v.1.15,2013-01-15 11:00:00,
2013-01-15 06:10:00,27.6,20.7,30.33,West,278,2.0,2.0,75,0.00,,,0.00,Wunderground v.1.15,2013-01-15 11:10:00,
2013-01-15 06:15:00,27.6,20.7,30.33,WNW,295,1.0,2.0,75,0.00,,,0.00,Wunderground v.1.15,2013-01-15 11:15:00,
2013-01-15 06:25:00,27.7,20.8,30.33,WNW,302,2.0,5.0,75,0.00,,,0.00,Wunderground v.1.15,2013-01-15 11:25:00,
2013-01-15 06:30:00,27.7,21.1,30.34,WNW,303,2.0,2.0,76,0.00,,,0.00,Wunderground v.1.15,2013-01-15 11:30:00,
2013-01-15 06:35:00,27.8,20.9,30.34,NNW,330,2.0,2.0,75,0.00,,,0.00,Wunderground v.1.15,2013-01-15 11:35:00,
2013-01-15 06:40:00,27.8,20.9,30.34,NW,306,2.0,2.0,75,0.00,,,0.00,Wunderground v.1.15,2013-01-15 11:40:00,
2013-01-15 06:50:00,27.8,20.9,30.34,NNW,346,2.0,2.0,75,0.00,,,0.00,Wunderground v.1.15,2013-01-15 11:50:00,
2013-01-15 06:55:00,27.8,20.9,30.35,NW,316,2.0,2.0,75,0.00,,,0.00,Wunderground v.1.15,2013-01-15 11:55:00,
2013-01-15 07:00:00,27.7,20.8,30.35,WNW,302,2.0,2.0,75,0.00,,,0.00,Wunderground v.1.15,2013-01-15 12:00:00,
2013-01-15 07:10:00,27.7,21.1,30.35,WNW,292,2.0,2.0,76,0.00,,,0.00,Wunderground v.1.15,2013-01-15 12:10:00,
2013-01-15 07:15:00,27.7,20.8,30.35,WSW,256,2.0,2.0,75,0.00,,,0.00,Wunderground v.1.15,2013-01-15 12:15:00,
2013-01-15 07:25:00,27.7,20.5,30.36,WNW,284,2.0,3.0,74,0.00,,,0.00,Wunderground v.1.15,2013-01-15 12:25:00,
2013-01-15 07:30:00,27.7,20.5,30.36,West,275,2.0,2.0,74,0.00,,,0.00,Wunderground v.1.15,2013-01-15 12:30:00,
2013-01-15 07:35:00,27.8,20.6,30.37,West,278,3.0,3.0,74,0.00,,,0.00,Wunderground v.1.15,2013-01-15 12:35:00,
2013-01-15 07:45:00,27.8,20.6,30.37,WNW,293,2.0,2.0,74,0.00,,,0.00,Wunderground v.1.15,2013-01-15 12:45:00,
2013-01-15 07:55:00,27.8,20.6,30.38,NW,309,2.0,3.0,74,0.00,,,0.00,Wunderground v.1.15,2013-01-15 12:55:00,
2013-01-15 08:00:00,27.8,20.3,30.38,WNW,293,2.0,4.0,73,0.00,,,0.00,Wunderground v.1.15,2013-01-15 13:00:00,
2013-01-15 08:10:00,27.9,20.4,30.38,WNW,287,2.0,2.0,73,0.00,,,0.00,Wunderground v.1.15,2013-01-15 13:10:00,
2013-01-15 08:20:00,28.0,20.5,30.38,West,276,1.0,1.0,73,0.00,,,0.00,Wunderground v.1.15,2013-01-15 13:20:00,
2013-01-15 08:30:00,28.1,20.6,30.38,WNW,293,1.0,1.0,73,0.00,,,0.00,Wunderground v.1.15,2013-01-15 13:30:00,
2013-01-15 08:35:00,28.2,20.7,30.39,West,267,1.0,2.0,73,0.00,,,0.00,Wunderground v.1.15,2013-01-15 13:35:00,
2013-01-15 08:40:00,28.3,20.7,30.39,WNW,284,1.0,2.0,73,0.00,,,0.00,Wunderground v.1.15,2013-01-15 13:40:00,
2013-01-15 08:50:00,28.4,21.2,30.39,North,349,2.0,2.0,74,0.00,,,0.00,Wunderground v.1.15,2013-01-15 13:50:00,
2013-01-15 08:55:00,28.5,20.9,30.39,West,280,2.0,2.0,73,0.00,,,0.00,Wunderground v.1.15,2013-01-15 13:55:00,
2013-01-15 09:00:00,28.5,20.9,30.39,West,267,1.0,3.0,73,0.00,,,0.00,Wunderground v.1.15,2013-01-15 14:00:00,
2013-01-15 09:10:00,28.6,21.0,30.39,WNW,283,2.0,2.0,73,0.00,,,0.00,Wunderground v.1.15,2013-01-15 14:10:00,
2013-01-15 09:20:00,29.0,21.1,30.40,West,262,2.0,3.0,72,0.00,,,0.00,Wunderground v.1.15,2013-01-15 14:20:00,
2013-01-15 09:30:00,29.3,21.1,30.40,WNW,296,3.0,3.0,71,0.00,,,0.00,Wunderground v.1.15,2013-01-15 14:30:00,
2013-01-15 09:35:00,29.4,21.5,30.40,NW,304,2.0,3.0,72,0.00,,,0.00,Wunderground v.1.15,2013-01-15 14:35:00,
2013-01-15 09:45:00,29.9,21.3,30.40,West,277,2.0,3.0,70,0.00,,,0.00,Wunderground v.1.15,2013-01-15 14:45:00,
2013-01-15 09:55:00,30.3,21.7,30.40,NW,304,3.0,4.0,70,0.00,,,0.00,Wunderground v.1.15,2013-01-15 14:55:00,
2013-01-15 10:00:00,30.5,21.9,30.40,NW,309,3.0,4.0,70,0.00,,,0.00,Wunderground v.1.15,2013-01-15 15:00:00,
2013-01-15 10:10:00,30.4,22.1,30.39,WNW,283,4.0,4.0,71,0.00,,,0.00,Wunderground v.1.15,2013-01-15 15:10:00,
2013-01-15 10:20:00,30.6,22.3,30.39,NW,309,3.0,4.0,71,0.00,,,0.00,Wunderground v.1.15,2013-01-15 15:20:00,
2013-01-15 10:30:00,30.9,22.9,30.39,NW,321,3.0,3.0,72,0.00,,,0.00,Wunderground v.1.15,2013-01-15 15:30:00,
2013-01-15 10:40:00,31.2,22.9,30.38,WNW,302,3.0,3.0,71,0.00,,,0.00,Wunderground v.1.15,2013-01-15 15:40:00,
2013-01-15 10:45:00,31.3,23.3,30.39,WNW,302,3.0,4.0,72,0.00,,,0.00,Wunderground v.1.15,2013-01-15 15:45:00,
2013-01-15 10:55:00,31.4,22.7,30.38,SW,218,4.0,5.0,70,0.00,,,0.00,Wunderground v.1.15,2013-01-15 15:55:00,
2013-01-15 11:05:00,31.8,23.5,30.37,NNE,14,3.0,4.0,71,0.00,,,0.00,Wunderground v.1.15,2013-01-15 16:05:00,
2013-01-15 11:10:00,31.6,22.6,30.37,West,274,3.0,3.0,69,0.00,,,0.00,Wunderground v.1.15,2013-01-15 16:10:00,
2013-01-15 11:20:00,31.7,23.0,30.37,WNW,298,3.0,3.0,70,0.00,,,0.00,Wunderground v.1.15,2013-01-15 16:20:00,
2013-01-15 11:30:00,31.8,22.4,30.37,WNW,302,3.0,3.0,68,0.00,,,0.00,Wunderground v.1.15,2013-01-15 16:30:00,
2013-01-15 11:40:00,31.7,23.0,30.37,NNW,344,3.0,3.0,70,0.00,,,0.00,Wunderground v.1.15,2013-01-15 16:40:00,
2013-01-15 11:45:00,32.1,23.1,30.37,WNW,300,3.0,3.0,69,0.00,,,0.00,Wunderground v.1.15,2013-01-15 16:45:00,
2013-01-15 11:55:00,32.4,21.9,30.36,NW,309,4.0,4.0,65,0.00,,,0.00,Wunderground v.1.15,2013-01-15 16:55:00,
2013-01-15 12:00:00,32.4,21.2,30.36,WNW,292,3.0,3.0,63,0.00,,,0.00,Wunderground v.1.15,2013-01-15 17:00:00,
2013-01-15 12:10:00,32.2,21.0,30.36,SW,227,3.0,6.0,63,0.00,,,0.00,Wunderground v.1.15,2013-01-15 17:10:00,
2013-01-15 12:20:00,31.8,20.6,30.36,WNW,291,4.0,4.0,63,0.00,,,0.00,Wunderground v.1.15,2013-01-15 17:20:00,
2013-01-15 12:30:00,32.1,20.2,30.35,NW,312,2.0,2.0,61,0.00,,,0.00,Wunderground v.1.15,2013-01-15 17:30:00,
2013-01-15 12:40:00,33.2,21.6,30.34,WSW,252,2.0,2.0,62,0.00,,,0.00,Wunderground v.1.15,2013-01-15 17:40:00,
2013-01-15 12:45:00,33.4,21.4,30.34,NW,308,3.0,4.0,61,0.00,,,0.00,Wunderground v.1.15,2013-01-15 17:45:00,
2013-01-15 12:55:00,33.2,21.2,30.33,WNW,287,3.0,3.0,61,0.00,,,0.00,Wunderground v.1.15,2013-01-15 17:55:00,
2013-01-15 13:00:00,32.9,20.1,30.32,WNW,286,4.0,4.0,59,0.00,,,0.00,Wunderground v.1.15,2013-01-15 18:00:00,
2013-01-15 13:10:00,33.2,20.8,30.31,SSW,194,4.0,7.0,60,0.00,,,0.00,Wunderground v.1.15,2013-01-15 18:10:00,
2013-01-15 13:20:00,33.8,21.4,30.31,SSW,202,3.0,3.0,60,0.00,,,0.00,Wunderground v.1.15,2013-01-15 18:20:00,
2013-01-15 13:25:00,33.9,21.1,30.31,North,3,2.0,3.0,59,0.00,,,0.00,Wunderground v.1.15,2013-01-15 18:25:00,
2013-01-15 13:35:00,33.8,21.8,30.32,North,349,3.0,5.0,61,0.00,,,0.00,Wunderground v.1.15,2013-01-15 18:35:00,
2013-01-15 13:40:00,33.8,21.8,30.32,North,351,3.0,3.0,61,0.00,,,0.00,Wunderground v.1.15,2013-01-15 18:40:00,
2013-01-15 13:50:00,33.9,22.2,30.32,NW,324,4.0,4.0,62,0.00,,,0.00,Wunderground v.1.15,2013-01-15 18:50:00,
2013-01-15 13:55:00,34.2,22.1,30.31,NNE,21,4.0,5.0,61,0.00,,,0.00,Wunderground v.1.15,2013-01-15 18:55:00,
2013-01-15 14:05:00,33.8,21.0,30.32,SSW,213,3.0,4.0,59,0.00,,,0.00,Wunderground v.1.15,2013-01-15 19:05:00,
2013-01-15 14:10:00,33.6,20.8,30.32,SW,228,2.0,5.0,59,0.00,,,0.00,Wunderground v.1.15,2013-01-15 19:10:00,
2013-01-15 14:15:00,33.1,19.9,30.32,NW,313,2.0,5.0,58,0.00,,,0.00,Wunderground v.1.15,2013-01-15 19:15:00,
2013-01-15 14:25:00,33.3,20.9,30.32,SW,232,3.0,5.0,60,0.00,,,0.00,Wunderground v.1.15,2013-01-15 19:25:00,
2013-01-15 14:30:00,33.4,21.0,30.32,WNW,301,3.0,3.0,60,0.00,,,0.00,Wunderground v.1.15,2013-01-15 19:30:00,
2013-01-15 14:35:00,33.6,21.2,30.32,WSW,257,3.0,3.0,60,0.00,,,0.00,Wunderground v.1.15,2013-01-15 19:35:00,
2013-01-15 14:40:00,33.9,21.1,30.32,WSW,251,3.0,3.0,59,0.00,,,0.00,Wunderground v.1.15,2013-01-15 19:40:00,
2013-01-15 14:50:00,33.6,20.4,30.32,NW,319,3.0,4.0,58,0.00,,,0.00,Wunderground v.1.15,2013-01-15 19:50:00,
2013-01-15 15:00:00,33.5,20.3,30.32,NW,321,4.0,4.0,58,0.00,,,0.00,Wunderground v.1.15,2013-01-15 20:00:00,
2013-01-15 15:10:00,33.6,20.0,30.32,North,352,3.0,3.0,57,0.00,,,0.00,Wunderground v.1.15,2013-01-15 20:10:00,
2013-01-15 15:15:00,34.0,20.8,30.32,North,358,2.0,3.0,58,0.00,,,0.00,Wunderground v.1.15,2013-01-15 20:15:00,
2013-01-15 15:25:00,33.7,20.5,30.32,NNE,15,2.0,5.0,58,0.00,,,0.00,Wunderground v.1.15,2013-01-15 20:25:00,
2013-01-15 15:35:00,33.7,20.1,30.31,North,356,2.0,5.0,57,0.00,,,0.00,Wunderground v.1.15,2013-01-15 20:35:00,
2013-01-15 15:40:00,33.3,18.9,30.31,North,349,2.0,2.0,55,0.00,,,0.00,Wunderground v.1.15,2013-01-15 20:40:00,
2013-01-15 15:50:00,32.7,18.7,30.32,North,355,2.0,2.0,56,0.00,,,0.00,Wunderground v.1.15,2013-01-15 20:50:00,
2013-01-15 16:00:00,32.3,19.6,30.32,NNW,328,0.0,0.0,59,0.00,,,0.00,Wunderground v.1.15,2013-01-15 21:00:00,
2013-01-15 16:10:00,32.2,19.9,30.32,NNW,345,1.0,1.0,60,0.00,,,0.00,Wunderground v.1.15,2013-01-15 21:10:00,
2013-01-15 16:15:00,32.1,20.5,30.33,NNW,338,1.0,1.0,62,0.00,,,0.00,Wunderground v.1.15,2013-01-15 21:15:00,
2013-01-15 16:25:00,31.9,20.0,30.33,NW,312,1.0,1.0,61,0.00,,,0.00,Wunderground v.1.15,2013-01-15 21:25:00,
2013-01-15 16:30:00,31.8,19.9,30.33,WNW,301,1.0,1.0,61,0.00,,,0.00,Wunderground v.1.15,2013-01-15 21:30:00,
2013-01-15 16:35:00,31.6,19.7,30.33,WNW,300,0.0,3.0,61,0.00,,,0.00,Wunderground v.1.15,2013-01-15 21:35:00,
2013-01-15 16:45:00,31.3,19.8,30.33,WNW,297,1.0,1.0,62,0.00,,,0.00,Wunderground v.1.15,2013-01-15 21:45:00,
2013-01-15 16:55:00,30.9,19.4,30.33,West,276,0.0,1.0,62,0.00,,,0.00,Wunderground v.1.15,2013-01-15 21:55:00,
2013-01-15 17:00:00,30.6,19.5,30.32,West,276,0.0,0.0,63,0.00,,,0.00,Wunderground v.1.15,2013-01-15 22:00:00,
2013-01-15 17:10:00,30.1,20.1,30.32,WNW,293,0.0,0.0,66,0.00,,,0.00,Wunderground v.1.15,2013-01-15 22:10:00,
2013-01-15 17:20:00,29.6,19.6,30.32,WNW,293,0.0,0.0,66,0.00,,,0.00,Wunderground v.1.15,2013-01-15 22:20:00,
2013-01-15 17:30:00,28.9,19.3,30.31,WNW,293,0.0,0.0,67,0.00,,,0.00,Wunderground v.1.15,2013-01-15 22:30:00,
2013-01-15 17:40:00,29.1,20.2,30.32,WNW,293,0.0,0.0,69,0.00,,,0.00,Wunderground v.1.15,2013-01-15 22:40:00,
2013-01-15 17:45:00,29.1,20.2,30.31,WNW,293,0.0,0.0,69,0.00,,,0.00,Wunderground v.1.15,2013-01-15 22:45:00,
2013-01-15 17:55:00,29.1,20.2,30.32,WNW,292,0.0,0.0,69,0.00,,,0.00,Wunderground v.1.15,2013-01-15 22:55:00,
2013-01-15 18:00:00,29.2,19.9,30.31,WNW,292,0.0,0.0,68,0.00,,,0.00,Wunderground v.1.15,2013-01-15 23:00:00,
2013-01-15 18:05:00,29.2,19.9,30.32,WNW,292,0.0,0.0,68,0.00,,,0.00,Wunderground v.1.15,2013-01-15 23:05:00,
2013-01-15 18:10:00,29.1,21.2,30.31,NNE,13,0.0,2.0,72,0.00,,,0.00,Wunderground v.1.15,2013-01-15 23:10:00,
2013-01-15 18:20:00,28.9,22.0,30.32,North,354,1.0,1.0,75,0.00,,,0.00,Wunderground v.1.15,2013-01-15 23:20:00,
2013-01-15 18:25:00,28.7,22.4,30.31,North,357,0.0,1.0,77,0.00,,,0.00,Wunderground v.1.15,2013-01-15 23:25:00,
2013-01-15 18:30:00,28.5,23.1,30.31,North,357,0.0,0.0,80,0.00,,,0.00,Wunderground v.1.15,2013-01-15 23:30:00,
2013-01-15 18:40:00,28.2,22.5,30.30,North,357,0.0,0.0,79,0.00,,,0.00,Wunderground v.1.15,2013-01-15 23:40:00,
2013-01-15 18:50:00,28.7,22.1,30.30,NNE,32,0.0,1.0,76,0.00,,,0.00,Wunderground v.1.15,2013-01-15 23:50:00,
2013-01-15 19:00:00,28.9,22.3,30.30,NNE,32,1.0,1.0,76,0.00,,,0.00,Wunderground v.1.15,2013-01-16 00:00:00,
2013-01-15 19:10:00,29.0,22.7,30.30,NE,45,1.0,1.0,77,0.00,,,0.00,Wunderground v.1.15,2013-01-16 00:10:00,
2013-01-15 19:15:00,29.0,22.7,30.31,NE,45,0.0,1.0,77,0.00,,,0.00,Wunderground v.1.15,2013-01-16 00:15:00,
2013-01-15 19:25:00,28.9,23.2,30.30,NE,45,0.0,0.0,79,0.00,,,0.00,Wunderground v.1.15,2013-01-16 00:25:00,
2013-01-15 19:30:00,29.0,23.0,30.30,ENE,58,0.0,0.0,78,0.00,,,0.00,Wunderground v.1.15,2013-01-16 00:30:00,
2013-01-15 19:35:00,29.0,22.7,30.30,ENE,59,0.0,0.0,77,0.00,,,0.00,Wunderground v.1.15,2013-01-16 00:35:00,
2013-01-15 19:40:00,29.1,22.8,30.29,ESE,114,1.0,1.0,77,0.00,,,0.00,Wunderground v.1.15,2013-01-16 00:40:00,
2013-01-15 19:50:00,29.1,22.8,30.30,ESE,114,0.0,0.0,77,0.00,,,0.00,Wunderground v.1.15,2013-01-16 00:50:00,
2013-01-15 19:55:00,29.1,22.8,30.29,ESE,114,0.0,0.0,77,0.00,,,0.00,Wunderground v.1.15,2013-01-16 00:55:00,
2013-01-15 20:00:00,29.1,22.5,30.29,ESE,115,0.0,0.0,76,0.00,,,0.00,Wunderground v.1.15,2013-01-16 01:00:00,
2013-01-15 20:10:00,29.1,22.8,30.28,SE,135,0.0,0.0,77,0.00,,,0.00,Wunderground v.1.15,2013-01-16 01:10:00,
2013-01-15 20:20:00,29.1,22.5,30.28,SSE,154,0.0,1.0,76,0.00,,,0.00,Wunderground v.1.15,2013-01-16 01:20:00,
2013-01-15 20:30:00,29.2,22.6,30.28,SSE,152,1.0,1.0,76,0.00,,,0.00,Wunderground v.1.15,2013-01-16 01:30:00,
2013-01-15 20:40:00,29.1,22.2,30.28,SSE,155,0.0,0.0,75,0.00,,,0.00,Wunderground v.1.15,2013-01-16 01:40:00,
2013-01-15 20:45:00,29.0,22.4,30.28,SSE,155,0.0,0.0,76,0.00,,,0.00,Wunderground v.1.15,2013-01-16 01:45:00,
2013-01-15 20:55:00,29.0,22.1,30.28,South,174,1.0,1.0,75,0.00,,,0.00,Wunderground v.1.15,2013-01-16 01:55:00,
2013-01-15 21:00:00,29.0,22.1,30.28,South,183,1.0,1.0,75,0.00,,,0.00,Wunderground v.1.15,2013-01-16 02:00:00,
2013-01-15 21:10:00,29.0,22.7,30.27,SSE,155,1.0,2.0,77,0.00,,,0.00,Wunderground v.1.15,2013-01-16 02:10:00,
2013-01-15 21:20:00,29.0,23.0,30.27,SE,139,1.0,1.0,78,0.00,,,0.00,Wunderground v.1.15,2013-01-16 02:20:00,
2013-01-15 21:30:00,28.9,23.2,30.27,SE,139,0.0,0.0,79,0.00,,,0.00,Wunderground v.1.15,2013-01-16 02:30:00,
2013-01-15 21:40:00,28.8,23.1,30.26,SSE,150,0.0,0.0,79,0.00,,,0.00,Wunderground v.1.15,2013-01-16 02:40:00,
2013-01-15 21:45:00,28.8,22.8,30.26,SSE,156,0.0,0.0,78,0.00,,,0.00,Wunderground v.1.15,2013-01-16 02:45:00,
2013-01-15 21:55:00,28.8,23.1,30.25,SE,137,0.0,1.0,79,0.00,,,0.00,Wunderground v.1.15,2013-01-16 02:55:00,
2013-01-15 22:00:00,28.8,23.1,30.25,ESE,122,0.0,0.0,79,0.00,,,0.00,Wunderground v.1.15,2013-01-16 03:00:00,
2013-01-15 22:05:00,28.8,23.1,30.25,SE,124,1.0,1.0,79,0.00,,,0.00,Wunderground v.1.15,2013-01-16 03:05:00,
2013-01-15 22:15:00,28.8,23.1,30.24,SE,139,1.0,2.0,79,0.00,,,0.00,Wunderground v.1.15,2013-01-16 03:15:00,
2013-01-15 22:25:00,28.8,22.5,30.25,SSE,160,1.0,1.0,77,0.00,,,0.00,Wunderground v.1.15,2013-01-16 03:25:00,
2013-01-15 22:30:00,28.9,22.6,30.24,ESE,122,0.0,0.0,77,0.00,,,0.00,Wunderground v.1.15,2013-01-16 03:30:00,
2013-01-15 22:40:00,29.0,23.0,30.23,ESE,122,0.0,0.0,78,0.00,,,0.00,Wunderground v.1.15,2013-01-16 03:40:00,
2013-01-15 22:50:00,29.0,23.0,30.23,SE,126,1.0,1.0,78,0.00,,,0.00,Wunderground v.1.15,2013-01-16 03:50:00,
2013-01-15 23:00:00,29.0,23.0,30.24,SE,131,0.0,0.0,78,0.00,,,0.00,Wunderground v.1.15,2013-01-16 04:00:00,
2013-01-15 23:10:00,29.0,23.3,30.22,SE,127,0.0,0.0,79,0.00,,,0.00,Wunderground v.1.15,2013-01-16 04:10:00,
2013-01-15 23:15:00,29.0,23.0,30.22,SE,127,0.0,0.0,78,0.00,,,0.00,Wunderground v.1.15,2013-01-16 04:15:00,
2013-01-15 23:25:00,29.0,23.3,30.21,East,99,1.0,1.0,79,0.00,,,0.00,Wunderground v.1.15,2013-01-16 04:25:00,
2013-01-15 23:30:00,29.0,23.6,30.21,East,99,0.0,0.0,80,0.00,,,0.00,Wunderground v.1.15,2013-01-16 04:30:00,
2013-01-15 23:35:00,28.9,23.5,30.22,East,99,0.0,0.0,80,0.00,,,0.00,Wunderground v.1.15,2013-01-16 04:35:00,
2013-01-15 23:45:00,29.0,23.6,30.21,SE,130,1.0,1.0,80,0.00,,,0.00,Wunderground v.1.15,2013-01-16 04:45:00,
2013-01-15 23:55:00,29.0,23.3,30.20,SE,124,1.0,1.0,79,0.00,,,0.00,Wunderground v.1.15,2013-01-16 04:55:00,